Temp
9 9 9 9 9 8 8 8 7 7 7 5 4 4 4 3 3 3 4 4 4 4 4 4 4 4 4 5 6 6 5 5 5 5 5 5 7 8 10 11 13 13 14 13 14 11 14
9 9 9 9 9 8 8 7 7 7 7 4 4 4 4 3 3 2 3 4 4 4 4 4 4 4 4 6 6 5 5 5 6 5 5 5 7 9 10 13 13 14 14 15 14 11 10
10 10 9 9 9 9 8 7 7 7 7 5 3 4 4 3 2 2 3 4 4 4 4 4 5 4 4 6 6 5 5 5 5 4 4 5 5 6 7 12 14 16 14 15 11 11 11
10 10 10 9 9 8 8 8 7 7 6 5 4 3 3 3 2 2 2 3 4 4 4 4 4 4 5 6 6 5 6 5 5 4 3 5 5 5 6 11 14 13 13 12 14 12 12
10 10 10 10 9 8 9 8 7 7 6 6 4 3 3 2 2 2 2 3 4 4 4 4 4 5 6 6 6 5 5 5 4 4 4 4 5 5 7 8 11 12 11 13 13 14 14
10 10 10 10 9 9 9 8 7 7 6 6 5 3 2 2 2 2 2 3 3 4 4 3 4 4 5 6 5 5 5 5 4 4 4 3 4 4 7 9 10 11 12 13 13 12 12
11 10 10 10 10 9 8 8 7 6 6 6 5 3 2 1 1 2 3 3 3 4 4 6 6 6 6 5 5 5 5 5 4 3 4 3 4 5 8 11 13 13 13 13 14 14 13
11 10 10 10 10 9 8 8 7 7 6 7 5 2 2 2 2 2 2 4 4 4 6 5 5 5 5 4 5 5 4 5 6 3 2 5 5 7 10 13 14 15 13 13 12 14 14
11 10 10 10 9 9 8 8 7 7 7 7 5 4 3 2 2 3 3 4 4 5 5 6 5 5 5 4 5 5 3 5 5 3 5 6 6 7 9 10 12 14 14 11 12 13 14
11 10 10 10 9 9 8 8 7 7 7 7 7 5 4 4 3 3 3 3 4 4 4 5 6 5 5 5 3 2 3 4 5 4 6 6 6 7 9 11 13 12 15 15 14 12 11
10 10 10 10 10 9 8 8 8 7 7 7 6 6 5 3 3 3 3 4 4 4 6 5 6 5 5 5 3 3 3 4 6 6 6 6 7 9 11 12 13 12 14 14 14 12 13
10 9 9 10 9 9 8 8 7 7 7 6 6 6 5 3 3 3 3 3 4 4 5 4 6 7 7 7 6 4 4 4 5 6 7 6 7 7 8 12 13 12 12 14 14 13 8
10 9 9 9 9 9 8 8 7 7 7 6 6 5 4 3 3 3 3 3 4 7 7 5 5 7 8 7 6 5 5 6 6 6 6 6 6 7 8 10 12 13 12 8 8 6 9
9 9 9 9 9 9 8 8 7 7 7 6 5 4 4 3 3 3 3 4 7 7 6 6 6 7 7 8 8 9 8 8 8 8 6 7 7 7 9 10 11 12 12 8 10 8 10
9 9 9 9 9 9 8 8 7 7 6 5 4 3 3 4 4 4 4 6 6 6 7 7 6 7 7 8 8 10 10 8 8 9 7 8 7 7 9 9 10 11 9 12 10 13 8
8 9 9 9 9 8 8 8 7 7 6 5 3 4 4 4 3 4 4 6 5 8 10 9 7 8 9 9 9 9 10 10 9 9 10 10 6 7 8 9 11 11 12 10 8 8 12
7 8 9 9 8 8 8 8 7 7 6 4 3 4 4 4 3 4 5 8 8 8 9 9 10 10 10 10 10 10 11 9 9 9 9 11 9 7 9 8 9 10 10 11 11 10 9
8 8 9 9 8 8 8 7 7 6 5 4 4 4 3 4 4 5 8 9 8 9 8 9 9 11 11 11 11 11 11 9 8 9 10 10 9 7 9 10 11 10 10 11 7 9 8
8 9 8 9 9 8 8 8 7 6 6 4 5 3 3 3 5 7 8 9 10 9 9 9 10 11 11 11 10 11 11 9 9 9 9 10 8 7 7 9 10 9 11 11 10 7 8
5 8 9 8 9 8 8 7 7 6 5 5 5 3 2 3 4 6 9 9 8 8 10 10 11 11 11 11 11 10 9 9 9 10 9 9 10 9 6 9 9 9 10 11 8 6 9
8 8 9 9 9 8 8 7 7 6 5 5 6 6 4 4 5 7 9 10 9 8 9 10 10 11 11 11 11 11 10 9 9 9 9 9 8 6 9 10 8 8 10 10 7 8 6
5 5 8 9 8 7 7 7 7 6 5 5 6 6 5 8 8 8 8 9 10 8 9 10 10 11 11 10 9 10 10 10 9 9 10 10 6 6 5 10 9 7 9 9 10 10 10
5 6 8 8 8 7 7 7 7 6 6 5 6 6 7 7 7 8 8 9 10 9 8 9 10 10 9 8 8 8 9 10 10 10 9 9 8 6 6 9 9 7 9 9 10 10 10
5 7 8 8 8 7 7 7 7 6 5 5 6 6 6 5 7 8 8 8 8 8 8 8 8 9 7 7 7 8 10 10 11 10 10 9 9 8 5 8 5 9 11 10 10 10 11
3 4 6 7 7 6 6 8 7 6 5 6 6 7 7 6 7 6 7 8 7 6 7 8 6 5 6 7 8 8 8 9 9 10 9 9 8 8 6 6 8 10 9 10 9 9 11
3 4 5 7 6 6 6 7 7 7 6 6 6 7 7 6 5 6 6 6 6 6 6 6 5 6 6 7 8 8 7 10 8 8 8 8 8 6 6 6 7 10 9 10 9 7 10
3 5 5 6 6 6 6 6 6 6 6 5 6 6 6 3 2 4 4 4 5 6 6 6 6 6 6 7 8 7 8 10 8 9 7 6 7 5 6 6 7 10 9 9 7 7 10
4 6 6 6 5 5 6 5 6 6 6 6 5 5 6 2 0 1 2 3 3 4 5 3 4 5 6 7 7 7 8 8 8 9 10 7 7 6 6 5 5 9 8 8 9 10 10
4 5 6 5 6 6 6 5 6 5 6 5 5 5 5 4 -0 1 1 1 2 2 3 2 2 2 1 4 5 6 7 7 8 7 8 6 8 7 8 8 10 10 10 10 10 10 9
Height
1540 1537 1535 1532 1530 1528 1524 1521 1518 1515 1511 1508 1507 1505 1502 1499 1496 1493 1492 1491 1490 1488 1486 1484 1483 1483 1483 1482 1481 1478 1475 1475 1472 1471 1473 1476 1476 1476 1476 1476 1478 1478 1479 1488 1489 1502 1500
1536 1534 1531 1529 1527 1525 1523 1519 1516 1512 1509 1506 1504 1502 1499 1496 1494 1491 1489 1488 1488 1487 1486 1484 1483 1483 1483 1482 1479 1477 1474 1473 1470 1468 1472 1474 1474 1474 1475 1472 1475 1475 1480 1483 1490 1502 1504
1533 1530 1527 1526 1524 1521 1520 1517 1514 1510 1506 1503 1501 1498 1496 1494 1491 1488 1486 1485 1485 1486 1484 1484 1483 1482 1483 1482 1479 1477 1475 1472 1470 1469 1470 1473 1471 1474 1476 1470 1470 1470 1478 1478 1488 1495 1501
1529 1525 1524 1522 1521 1518 1517 1514 1511 1508 1504 1500 1497 1495 1493 1490 1488 1485 1482 1483 1483 1484 1483 1483 1483 1482 1481 1478 1477 1477 1475 1472 1471 1470 1469 1470 1472 1475 1476 1468 1465 1476 1479 1487 1484 1494 1499
1523 1520 1518 1517 1516 1515 1513 1511 1508 1505 1502 1498 1494 1491 1489 1487 1486 1483 1480 1481 1481 1481 1481 1481 1482 1483 1480 1477 1477 1477 1476 1474 1472 1469 1470 1471 1474 1477 1475 1475 1472 1475 1481 1483 1483 1488 1491
1518 1516 1513 1512 1511 1511 1509 1509 1505 1502 1499 1495 1491 1488 1486 1484 1482 1480 1480 1480 1481 1481 1481 1481 1482 1485 1480 1478 1477 1476 1476 1473 1473 1471 1472 1474 1476 1479 1472 1469 1475 1476 1478 1479 1482 1489 1496
1510 1511 1507 1506 1506 1506 1505 1504 1502 1499 1496 1492 1489 1486 1483 1480 1479 1479 1480 1480 1484 1484 1482 1482 1481 1480 1479 1478 1476 1476 1476 1474 1473 1472 1474 1477 1480 1475 1467 1459 1462 1465 1469 1475 1475 1480 1490
1503 1503 1501 1500 1500 1500 1501 1500 1498 1495 1493 1489 1486 1483 1480 1478 1477 1478 1479 1479 1481 1484 1481 1480 1480 1479 1478 1476 1475 1476 1477 1476 1473 1476 1477 1475 1472 1470 1465 1463 1461 1462 1470 1480 1480 1482 1487
1494 1496 1495 1494 1495 1495 1496 1495 1494 1492 1490 1486 1483 1480 1477 1476 1476 1478 1479 1480 1480 1481 1481 1480 1481 1479 1479 1478 1476 1476 1478 1476 1476 1477 1471 1468 1470 1470 1469 1469 1470 1466 1470 1485 1485 1488 1486
1485 1487 1488 1487 1489 1490 1491 1491 1490 1488 1486 1482 1480 1478 1475 1475 1479 1479 1479 1479 1480 1481 1482 1482 1479 1480 1479 1477 1479 1477 1477 1479 1478 1475 1471 1472 1475 1472 1472 1468 1461 1470 1462 1469 1476 1487 1497
1476 1477 1481 1480 1483 1484 1485 1486 1486 1485 1482 1479 1477 1475 1473 1475 1478 1480 1480 1478 1480 1482 1472 1485 1481 1480 1477 1478 1480 1480 1479 1476 1474 1474 1476 1479 1471 1467 1468 1468 1465 1470 1462 1469 1477 1486 1488
1466 1471 1473 1472 1476 1478 1480 1481 1482 1481 1479 1476 1474 1473 1473 1476 1478 1479 1478 1479 1482 1484 1480 1485 1482 1477 1476 1474 1477 1479 1479 1480 1482 1478 1476 1479 1478 1475 1473 1470 1471 1476 1475 1475 1478 1485 1512
1457 1463 1466 1466 1469 1472 1474 1475 1477 1477 1476 1474 1473 1473 1474 1477 1479 1479 1479 1481 1483 1472 1480 1483 1483 1477 1473 1474 1477 1480 1479 1478 1480 1481 1481 1483 1484 1481 1481 1476 1473 1471 1478 1503 1512 1519 1507
1449 1455 1457 1459 1462 1465 1468 1470 1472 1473 1473 1473 1472 1474 1475 1476 1478 1479 1480 1482 1471 1474 1479 1482 1481 1478 1475 1475 1477 1469 1473 1474 1475 1477 1484 1486 1492 1489 1485 1483 1481 1479 1478 1499 1501 1509 1502
1441 1445 1448 1449 1455 1460 1463 1465 1468 1469 1471 1471 1472 1474 1476 1478 1478 1479 1481 1476 1475 1476 1475 1478 1481 1475 1477 1476 1475 1474 1471 1476 1479 1479 1482 1483 1491 1491 1488 1488 1487 1484 1490 1485 1491 1479 1502
1431 1437 1440 1443 1449 1454 1457 1460 1463 1466 1468 1469 1472 1474 1477 1478 1479 1479 1480 1476 1477 1474 1472 1475 1474 1474 1470 1472 1473 1473 1470 1473 1477 1477 1477 1476 1493 1494 1491 1490 1487 1486 1484 1495 1499 1506 1493
1419 1427 1433 1436 1443 1449 1452 1455 1459 1462 1465 1468 1471 1473 1476 1478 1480 1479 1475 1470 1470 1474 1474 1473 1468 1467 1468 1470 1469 1471 1471 1479 1479 1479 1479 1474 1481 1496 1492 1494 1490 1491 1492 1486 1486 1495 1503
1412 1420 1424 1431 1437 1443 1448 1451 1455 1458 1461 1466 1469 1471 1475 1478 1480 1476 1468 1467 1469 1473 1476 1473 1472 1464 1463 1466 1468 1467 1470 1475 1479 1479 1479 1478 1483 1495 1492 1489 1488 1488 1489 1485 1506 1501 1501
1408 1414 1419 1425 1431 1437 1443 1446 1451 1454 1457 1462 1466 1470 1474 1476 1474 1470 1468 1469 1469 1471 1472 1472 1468 1468 1466 1465 1470 1468 1471 1478 1479 1479 1479 1480 1486 1495 1496 1491 1488 1491 1485 1483 1487 1497 1502
1402 1407 1413 1420 1426 1432 1438 1442 1447 1450 1455 1460 1462 1468 1474 1475 1472 1469 1465 1467 1470 1470 1470 1470 1469 1468 1466 1467 1467 1470 1474 1478 1479 1479 1480 1482 1479 1483 1496 1486 1483 1489 1484 1483 1492 1509 1496
1397 1402 1407 1414 1420 1427 1434 1438 1442 1446 1451 1457 1456 1458 1462 1468 1467 1466 1463 1463 1466 1470 1470 1470 1469 1468 1466 1467 1467 1469 1475 1480 1481 1481 1482 1482 1485 1488 1483 1480 1484 1483 1481 1482 1492 1487 1500
1397 1398 1403 1409 1414 1422 1430 1433 1438 1442 1447 1453 1453 1454 1458 1456 1459 1462 1463 1463 1462 1468 1468 1469 1469 1468 1468 1469 1473 1471 1472 1474 1476 1481 1480 1481 1491 1489 1492 1479 1481 1486 1482 1480 1479 1477 1481
1385 1390 1396 1403 1410 1418 1425 1430 1434 1438 1444 1448 1449 1451 1453 1457 1460 1460 1461 1461 1462 1467 1472 1470 1470 1469 1471 1477 1476 1476 1476 1476 1475 1477 1480 1479 1483 1489 1491 1481 1482 1488 1472 1470 1471 1470 1471
1386 1390 1392 1398 1405 1415 1421 1427 1431 1436 1440 1443 1444 1449 1452 1458 1458 1458 1460 1462 1466 1469 1469 1473 1474 1472 1477 1477 1477 1477 1477 1477 1477 1478 1478 1478 1480 1484 1496 1485 1501 1468 1463 1464 1465 1464 1461
1383 1386 1388 1395 1402 1411 1417 1424 1429 1432 1437 1441 1443 1447 1448 1452 1456 1461 1463 1464 1468 1471 1472 1473 1476 1478 1477 1477 1476 1477 1479 1478 1477 1479 1479 1479 1482 1485 1493 1492 1477 1461 1466 1466 1466 1464 1456
1381 1381 1387 1393 1400 1407 1414 1421 1426 1430 1435 1439 1442 1445 1447 1452 1460 1460 1463 1466 1468 1471 1474 1475 1476 1477 1478 1477 1476 1477 1481 1472 1481 1481 1479 1483 1485 1491 1492 1493 1483 1467 1468 1468 1468 1474 1460
1373 1376 1384 1391 1397 1405 1411 1419 1423 1429 1433 1437 1440 1444 1447 1453 1460 1461 1464 1467 1467 1467 1469 1474 1477 1478 1479 1477 1478 1480 1476 1473 1478 1476 1484 1488 1486 1493 1492 1490 1481 1464 1466 1468 1477 1476 1464
1364 1373 1382 1389 1396 1403 1410 1417 1421 1428 1432 1436 1439 1443 1446 1452 1462 1464 1465 1467 1468 1469 1471 1476 1479 1479 1479 1478 1479 1480 1476 1477 1478 1473 1473 1483 1485 1484 1485 1488 1487 1467 1469 1473 1469 1465 1465
1373 1375 1380 1388 1394 1401 1407 1414 1421 1426 1432 1435 1438 1442 1444 1449 1462 1466 1466 1468 1469 1471 1474 1476 1478 1479 1481 1480 1480 1479 1477 1477 1476 1483 1475 1484 1476 1479 1473 1470 1466 1465 1464 1464 1463 1462 1462
Wind_Speed
26 24 21 21 20 19 17 19 20 21 21 19 15 17 18 17 19 11 9 9 11 11 7 5 5 5 2 6 7 6 10 8 12 11 14 19 19 19 13 16 21 17 10 27 23 5 19
30 29 26 21 22 20 18 18 19 20 21 17 13 17 20 17 17 15 8 9 10 10 7 4 4 4 8 13 6 10 8 6 11 9 13 19 7 15 12 16 21 20 23 21 20 12 18
31 34 33 23 23 21 20 18 19 20 22 20 16 14 18 17 17 18 8 8 8 9 8 5 3 5 11 9 6 10 7 6 10 3 10 13 4 2 8 10 25 11 18 11 13 17 8
30 30 35 28 22 21 20 19 20 19 20 21 17 13 17 18 16 17 8 8 9 10 9 6 4 6 7 8 5 7 7 5 7 4 9 12 12 12 7 11 18 9 14 14 16 25 14
33 30 33 34 23 22 20 20 19 18 20 22 18 15 16 15 15 15 5 4 7 7 6 3 3 5 5 5 4 6 6 5 5 8 6 6 10 4 10 8 10 7 11 14 11 13 7
34 31 35 32 29 23 21 20 18 18 19 22 17 15 14 14 13 10 3 1 3 1 6 3 7 5 7 3 7 7 4 5 2 5 5 3 4 1 7 10 11 12 9 12 8 9 11
35 32 33 25 28 25 20 20 18 17 19 22 18 14 14 15 10 4 2 6 2 2 3 4 3 7 5 9 6 4 5 5 1 5 1 6 2 6 16 18 12 12 10 13 10 9 11
36 32 26 25 27 22 21 19 18 17 19 21 17 14 12 11 7 3 7 3 3 1 3 0 3 3 3 5 6 1 8 3 1 3 7 4 2 3 3 11 16 14 16 7 7 4 9
36 32 30 25 25 22 21 18 16 16 18 20 17 13 11 8 2 4 5 2 8 2 4 2 1 3 2 2 6 7 8 3 5 2 1 3 3 3 4 3 12 17 15 12 10 13 6
36 32 31 30 23 24 20 17 15 15 17 17 16 12 8 3 3 3 1 5 4 4 2 4 1 1 3 2 2 5 2 2 2 3 4 5 1 5 7 13 8 9 12 12 14 7 4
37 32 34 31 23 26 20 15 13 14 15 14 13 11 3 7 5 1 1 4 5 2 2 2 3 4 4 2 2 5 3 3 5 2 2 5 7 4 11 6 8 3 8 8 11 9 5
36 35 35 35 23 26 19 14 11 12 13 11 9 2 7 8 6 1 5 7 4 2 3 3 4 4 1 4 5 2 1 5 5 3 6 5 6 6 9 6 6 8 11 4 5 0 1
35 36 33 35 24 28 17 12 10 11 10 7 1 6 8 5 4 4 10 4 1 2 1 3 3 4 5 5 4 3 2 3 3 1 4 5 6 8 6 3 5 2 6 3 2 2 3
35 36 33 30 30 25 16 11 8 9 6 1 7 10 9 6 7 9 5 2 2 3 1 2 1 3 4 4 2 5 5 5 5 4 3 3 1 3 2 3 2 5 5 3 4 4 4
35 35 35 33 30 21 16 10 8 7 4 8 11 10 6 7 7 6 1 1 3 3 4 6 3 0 2 2 1 2 3 5 2 3 2 3 3 3 2 5 5 5 3 1 3 2 4
28 35 37 36 26 22 14 11 9 6 5 13 12 9 4 5 5 6 2 1 1 3 4 7 2 6 5 5 3 2 2 3 2 3 4 2 5 2 3 6 3 3 1 1 2 2 1
21 34 33 36 24 22 15 13 9 7 9 18 13 6 4 6 5 3 2 2 3 5 1 3 2 1 7 4 3 2 5 3 2 1 8 4 4 2 2 2 3 2 0 1 2 3 1
24 29 34 34 25 22 17 14 11 9 15 19 10 3 7 9 2 3 2 4 1 5 4 3 3 2 2 4 5 0 3 5 6 5 2 2 4 3 1 5 3 4 4 4 3 3 1
21 29 34 35 27 22 18 15 12 12 17 20 10 5 9 9 3 3 4 5 2 4 5 4 3 2 3 2 2 4 3 7 9 3 3 3 2 3 1 2 5 5 6 6 2 4 3
15 37 34 34 29 23 18 16 13 14 20 17 7 3 3 7 7 5 6 5 5 1 1 2 1 3 4 3 1 3 5 2 7 2 1 2 2 2 2 1 1 5 7 7 5 2 4
12 30 35 36 32 23 20 17 14 16 22 16 7 5 8 4 7 7 1 8 8 5 4 4 2 5 2 3 4 4 6 4 4 3 2 2 2 3 2 3 2 2 4 8 7 9 5
32 31 32 37 33 26 21 17 15 18 24 19 6 4 7 3 6 8 4 6 9 4 1 4 4 1 4 3 6 2 5 6 4 6 2 3 2 3 3 7 6 6 7 9 10 13 12
25 37 36 38 30 26 21 16 17 20 24 10 13 11 6 7 5 5 6 8 9 7 1 5 3 3 6 4 6 7 7 6 5 4 6 3 3 1 2 2 5 6 14 14 9 8 8
2 34 34 37 31 27 21 16 17 18 27 13 14 13 4 3 4 3 3 7 7 4 3 4 3 5 2 1 2 2 2 1 2 2 6 2 2 1 2 1 3 6 2 4 2 6 11
24 25 45 37 31 27 21 16 17 17 26 18 13 10 3 4 7 4 6 5 8 4 3 3 5 3 1 1 2 3 3 3 4 3 4 1 3 1 1 3 8 6 4 1 2 5 6
26 31 45 36 31 29 24 18 15 16 21 20 15 12 4 9 2 8 8 9 4 5 3 4 1 1 1 3 2 2 3 1 4 4 4 2 2 2 3 1 3 2 3 3 2 4 6
34 44 44 37 32 30 26 20 16 16 18 17 19 13 8 8 4 5 3 2 1 2 3 6 2 1 2 2 2 1 0 2 2 3 3 2 2 5 5 3 7 1 8 2 2 2 2
32 39 38 37 33 29 26 21 14 15 17 18 17 16 11 8 9 6 6 5 2 1 1 3 3 2 1 1 2 3 1 2 3 4 2 5 4 4 4 4 6 8 4 3 1 1 3
35 43 38 39 34 31 25 19 17 16 17 15 20 17 19 9 11 10 10 6 6 6 4 3 3 3 3 1 1 1 2 1 1 2 4 1 3 2 2 1 3 8 12 9 14 11 12
Wind_Direction
302 304 307 315 322 328 328 327 328 331 332 332 344 330 322 323 320 313 304 307 313 322 318 323 334 337 338 264 287 316 331 311 310 255 215 217 221 212 212 206 223 207 197 211 225 271 243
301 303 297 305 312 321 324 324 321 326 328 324 329 322 324 321 321 328 298 286 302 314 305 313 330 333 317 289 322 329 327 315 331 217 206 214 224 217 242 207 218 189 224 203 198 201 251
300 304 293 296 303 312 321 321 319 322 327 325 324 321 319 320 317 316 279 282 287 293 294 284 301 338 296 278 347 354 343 313 331 307 237 214 262 294 322 234 216 219 197 225 145 172 254
291 297 293 288 292 302 316 319 315 320 323 325 325 322 317 314 313 312 277 275 271 292 282 273 287 332 275 291 324 343 349 335 351 337 284 218 251 278 260 279 183 170 191 209 170 163 196
293 298 295 284 281 297 309 313 313 317 319 323 321 323 315 313 310 310 309 279 289 280 276 270 322 291 286 341 8 336 349 347 348 359 236 345 209 252 293 240 178 188 189 194 168 189 172
290 294 297 281 278 290 299 307 311 313 316 320 321 314 312 311 316 318 307 260 315 294 355 284 273 274 307 324 325 335 336 345 10 12 41 316 64 11 259 213 178 175 192 189 175 184 243
285 288 295 272 271 282 292 302 308 309 314 318 321 315 311 313 317 316 135 73 353 249 234 304 302 305 328 321 303 324 344 322 128 64 116 181 142 213 207 207 178 158 182 182 172 156 186
275 279 284 271 265 279 283 296 304 307 312 318 318 315 314 321 324 254 166 167 345 261 266 323 311 296 313 319 289 4 0 340 76 9 313 180 203 227 286 215 200 180 183 227 89 138 179
270 274 277 273 260 271 274 290 301 305 312 317 317 314 314 324 11 114 140 261 259 191 256 113 325 335 297 348 342 353 9 336 81 310 165 64 59 337 139 223 187 197 198 152 157 173 213
266 266 269 265 257 266 267 284 297 305 312 316 320 318 311 94 70 94 178 245 195 145 278 17 155 332 296 266 90 4 29 15 76 349 2 62 312 253 150 211 182 129 150 164 135 137 170
258 264 267 258 256 257 260 280 293 304 310 321 320 319 294 138 121 44 194 150 141 62 12 46 9 296 275 0 145 24 48 1 47 77 318 44 346 50 152 140 91 351 86 121 136 178 117
256 258 263 254 250 250 253 274 289 299 308 324 326 334 113 113 99 166 129 120 88 237 30 359 317 306 163 78 73 7 55 76 41 323 101 53 9 15 350 30 54 224 127 89 62 345 347
249 256 260 269 243 241 246 266 279 293 305 323 359 132 119 138 134 140 112 113 204 7 235 18 20 300 75 54 59 144 151 141 101 63 46 31 3 343 325 339 333 198 129 75 40 23 233
246 249 251 251 238 230 241 258 264 284 293 296 139 125 108 142 153 130 101 214 66 98 73 85 84 55 50 15 84 30 111 74 69 47 91 76 92 341 48 307 334 216 187 149 174 177 198
238 245 247 233 228 228 232 244 251 268 253 162 149 124 111 128 142 140 143 133 133 134 180 152 197 194 111 138 102 162 81 118 201 210 92 133 76 290 45 321 330 254 262 324 341 287 94
245 238 244 243 216 227 224 233 235 240 201 164 136 126 161 147 143 130 247 65 150 188 133 173 283 193 119 127 159 245 130 52 89 338 318 105 96 301 88 290 247 326 196 159 350 82 221
243 236 240 235 215 219 220 221 221 209 176 159 148 142 168 155 138 235 201 131 147 169 233 245 337 134 126 141 118 196 83 120 25 163 306 332 98 98 152 236 232 184 200 289 357 71 301
262 226 232 227 213 210 213 211 208 189 170 162 156 120 164 155 194 249 221 138 59 154 186 253 286 292 176 155 173 263 72 77 155 171 193 50 101 95 188 172 242 274 284 243 121 236 267
232 228 228 225 209 204 205 206 200 185 177 152 150 114 169 175 197 210 131 134 192 164 185 188 210 322 338 225 70 96 83 116 163 167 27 354 134 106 324 231 228 230 228 250 48 49 196
306 232 225 222 210 196 198 204 196 180 174 157 145 131 156 209 267 279 160 154 156 285 274 257 5 247 206 165 214 135 116 150 166 158 24 335 245 217 160 209 208 194 223 228 146 139 210
258 219 225 226 207 189 193 198 193 180 177 173 180 156 174 178 225 227 190 162 154 165 253 248 202 277 255 141 160 122 96 125 176 195 230 256 208 100 300 300 78 300 257 231 199 217 200
271 240 232 209 196 184 190 189 191 181 180 185 180 157 182 88 154 198 172 224 179 118 217 187 245 222 248 358 28 98 153 187 177 164 237 194 309 77 290 214 206 249 246 241 246 240 235
268 211 230 205 191 180 186 188 192 186 184 187 201 174 161 149 186 197 180 180 185 129 112 11 19 244 92 59 19 7 359 354 339 151 212 175 160 137 285 15 306 286 240 226 229 231 227
229 208 232 215 191 181 176 190 193 192 188 189 176 162 191 165 187 170 155 129 151 151 137 119 289 293 75 196 289 333 259 312 246 5 342 227 218 341 262 292 249 238 115 53 330 267 239
284 231 228 204 184 175 167 188 195 191 193 203 177 166 201 118 122 94 142 141 107 136 127 122 62 49 103 241 244 144 187 206 202 82 300 275 328 240 202 231 274 295 105 57 204 291 237
283 233 218 199 184 168 167 175 195 192 196 204 190 177 123 131 72 150 144 167 167 179 128 136 188 67 76 254 249 231 189 184 129 183 214 327 332 31 36 308 279 78 92 43 343 275 70
263 219 214 191 181 167 164 171 180 190 188 189 184 173 127 106 78 123 113 176 40 69 100 114 121 122 214 258 223 272 192 32 208 219 132 116 205 219 256 261 281 145 134 74 348 273 53
208 208 208 187 177 168 165 173 173 189 186 180 176 166 149 105 95 86 95 86 116 19 152 121 124 212 210 238 168 247 322 160 359 276 145 178 199 196 196 231 261 118 93 171 213 10 312
194 213 204 185 171 170 166 174 187 181 187 179 162 156 134 109 118 103 92 109 135 125 97 88 90 64 37 263 19 354 291 107 288 307 31 279 234 286 246 177 154 204 248 253 272 285 286